FW8148 Weather Reports


Display with metric or nautical units.
time (UTC)temp
F
wind
direction
speed
MPH
gust
MPH
rain 1hr
in
rain 24hr
in
rain mn
in
humidity
%
barometer
mb
20210731062049 64 306 2.0 4.0 0.00 0.00 0.00 78 1010.6
20210731061149 64 251 2.0 6.0 0.00 0.00 0.00 79 1010.6
20210731040002 58 234 1.0 4.0 0.00 0.00 0.00 82 1009.6
20210731035101 58 235 1.0 4.0 0.00 0.00 0.00 81 1009.6
20210731034157 58 231 1.0 3.0 0.00 0.00 0.00 81 1009.6
20210731033256 58 220 1.0 3.0 0.00 0.00 0.00 81 1009.6
20210731032357 58 200 1.0 3.0 0.00 0.00 0.00 81 1009.6
20210731031456 59 175 2.0 3.0 0.00 0.00 0.00 80 1009.6
20210731030557 59 211 1.0 3.0 0.00 0.00 0.00 80 1009.6
20210731025657 59 0 0.0 2.0 0.00 0.00 0.00 79 1009.6
20210731024757 59 0 0.0 3.0 0.00 0.00 0.00 79 1009.6
20210731023856 59 0 0.0 2.0 0.00 0.00 0.00 78 1009.6
20210731023001 59 0 0.0 2.0 0.00 0.00 0.00 78 1009.6
20210731022056 59 0 0.0 2.0 0.00 0.00 0.00 77 1009.6
20210731021156 60 0 0.0 2.0 0.00 0.00 0.00 77 1009.6
20210731015106 60 273 1.0 3.0 0.00 0.00 0.00 75 1009.6
20210731014207 60 271 1.0 3.0 0.00 0.00 0.00 75 1009.6
20210731013307 60 248 2.0 3.0 0.00 0.00 0.00 74 1009.6
20210731012407 60 246 1.0 3.0 0.00 0.00 0.00 74 1009.6
20210731011506 60 268 1.0 4.0 0.00 0.00 0.00 74 1009.6
20210731010606 60 251 2.0 4.0 0.00 0.00 0.00 74 1009.6
20210731005706 60 226 2.0 4.0 0.00 0.00 0.00 73 1009.6
20210731004807 61 246 2.0 2.0 0.00 0.00 0.00 73 1009.6
20210731003906 61 228 2.0 4.0 0.00 0.00 0.00 73 1009.6
20210731003006 61 233 2.0 3.0 0.00 0.00 0.00 72 1009.6
20210731002106 61 250 2.0 3.0 0.00 0.00 0.00 72 1009.6
20210731001206 61 260 1.0 3.0 0.00 0.00 0.00 71 1009.6
20210730235108 61 238 1.0 2.0 0.00 0.00 0.00 70 1009.6
20210730234208 62 0 0.0 3.0 0.00 0.00 0.00 70 1009.6
20210730233308 62 265 2.0 4.0 0.00 0.00 0.00 69 1009.6
20210730232408 62 251 2.0 3.0 0.00 0.00 0.00 68 1009.6
20210730231508 62 244 2.0 3.0 0.00 0.00 0.00 68 1009.6
20210730230607 62 216 2.0 4.0 0.00 0.00 0.00 68 1009.6
20210730225708 62 0 0.0 2.0 0.00 0.00 0.00 67 1009.6
20210730224808 63 244 1.0 2.0 0.00 0.00 0.00 65 1009.6
20210730223909 63 0 0.0 1.0 0.00 0.00 0.00 64 1009.6
20210730223008 63 247 1.0 3.0 0.00 0.00 0.00 64 1009.6
20210730222108 63 0 0.0 3.0 0.00 0.00 0.00 63 1009.6
20210730221207 63 255 2.0 4.0 0.00 0.00 0.00 63 1009.6
20210730215105 63 247 1.0 2.0 0.00 0.00 0.00 62 1009.6
20210730214203 63 270 1.0 2.0 0.00 0.00 0.00 61 1009.6
20210730213304 64 0 0.0 2.0 0.00 0.00 0.00 60 1009.6
20210730212404 64 216 1.0 2.0 0.00 0.00 0.00 59 1009.6
20210730211504 65 0 0.0 2.0 0.00 0.00 0.00 59 1009.6
20210730210608 65 221 2.0 3.0 0.00 0.00 0.00 58 1009.6
20210730205708 65 0 0.0 2.0 0.00 0.00 0.00 58 1009.6
20210730204804 65 0 0.0 2.0 0.00 0.00 0.00 57 1009.6
20210730203903 66 0 0.0 3.0 0.00 0.00 0.00 57 1009.6
20210730203006 66 256 2.0 5.0 0.00 0.00 0.00 56 1009.6
20210730202103 66 276 2.0 5.0 0.00 0.00 0.00 54 1009.6
20210730201205 67 238 2.0 6.0 0.00 0.00 0.00 54 1009.6
20210730195957 67 228 2.0 3.0 0.00 0.00 0.00 54 1008.6
20210730195057 67 233 2.0 5.0 0.00 0.00 0.00 53 1008.6
20210730194157 68 302 2.0 4.0 0.00 0.00 0.00 53 1008.6
20210730193258 68 271 2.0 5.0 0.00 0.00 0.00 52 1008.6
20210730192358 69 248 3.0 4.0 0.00 0.00 0.00 52 1008.6
20210730191502 69 252 2.0 7.0 0.00 0.00 0.00 52 1008.6
20210730190557 69 246 3.0 7.0 0.00 0.00 0.00 51 1008.6
20210730185700 69 231 3.0 7.0 0.00 0.00 0.00 51 1007.6
20210730184802 70 246 3.0 6.0 0.00 0.00 0.00 49 1008.6
20210730183857 70 260 2.0 8.0 0.00 0.00 0.00 48 1008.6
20210730182958 70 285 3.0 8.0 0.00 0.00 0.00 48 1009.6
20210730182101 71 299 3.0 8.0 0.00 0.00 0.00 48 1009.6
20210730181159 71 271 3.0 10.0 0.00 0.00 0.00 47 1008.6
20210730175103 72 253 3.0 10.0 0.00 0.00 0.00 48 1008.6
20210730174202 72 252 5.0 9.0 0.00 0.00 0.00 48 1008.6
20210730173301 73 251 3.0 6.0 0.00 0.00 0.00 48 1008.6
20210730172401 73 280 3.0 9.0 0.00 0.00 0.00 47 1008.6
20210730171501 72 300 3.0 7.0 0.00 0.00 0.00 47 1008.6
20210730170602 73 241 3.0 10.0 0.00 0.00 0.00 46 1008.6
20210730165702 73 233 5.0 10.0 0.00 0.00 0.00 46 1008.6
20210730164802 73 229 3.0 7.0 0.00 0.00 0.00 46 1008.6
20210730163902 74 274 3.0 9.0 0.00 0.00 0.00 43 1008.6
20210730163002 74 283 3.0 6.0 0.00 0.00 0.00 43 1008.6
20210730162102 74 273 3.0 9.0 0.00 0.00 0.00 43 1008.6
20210730161201 75 258 3.0 8.0 0.00 0.00 0.00 43 1008.6
20210730155958 74 216 3.0 6.0 0.00 0.00 0.00 43 1008.6
20210730155059 74 257 4.0 9.0 0.00 0.00 0.00 43 1008.6
20210730154159 74 259 4.0 8.0 0.00 0.00 0.00 42 1007.6
20210730153258 75 272 3.0 8.0 0.00 0.00 0.00 42 1008.6
20210730152358 75 291 2.0 11.0 0.00 0.00 0.00 42 1008.6
20210730151500 75 265 4.0 7.0 0.00 0.00 0.00 42 1008.6
20210730150603 76 305 4.0 8.0 0.00 0.00 0.00 42 1008.6
20210730145658 76 238 4.0 12.0 0.00 0.00 0.00 43 1007.6
20210730144758 75 300 3.0 6.0 0.00 0.00 0.00 43 1007.6
20210730143858 75 296 4.0 6.0 0.00 0.00 0.00 43 1007.6
20210730142958 75 296 4.0 11.0 0.00 0.00 0.00 42 1007.6
20210730142100 76 265 4.0 6.0 0.00 0.00 0.00 42 1007.6
20210730141200 77 249 4.0 10.0 0.00 0.00 0.00 42 1007.6
20210730135117 78 240 3.0 9.0 0.00 0.00 0.00 43 1007.6
20210730134218 77 257 4.0 7.0 0.00 0.00 0.00 44 1007.6
20210730133317 76 281 3.0 7.0 0.00 0.00 0.00 43 1007.6
20210730132417 77 279 4.0 6.0 0.00 0.00 0.00 44 1007.6
20210730131518 77 251 3.0 10.0 0.00 0.00 0.00 44 1007.6
20210730130617 77 301 4.0 9.0 0.00 0.00 0.00 43 1007.6
20210730125717 77 289 4.0 9.0 0.00 0.00 0.00 44 1007.6
20210730124817 77 323 5.0 13.0 0.00 0.00 0.00 46 1007.6
20210730123917 77 292 5.0 13.0 0.00 0.00 0.00 47 1007.6
20210730123017 77 255 5.0 9.0 0.00 0.00 0.00 48 1006.6
20210730122118 78 250 4.0 10.0 0.00 0.00 0.00 50 1006.6
20210730121217 77 279 4.0 7.0 0.00 0.00 0.00 51 1005.6
20210730115111 76 201 5.0 10.0 0.00 0.00 0.00 58 1006.6
20210730114211 74 206 5.0 8.0 0.00 0.00 0.00 61 1006.6
20210730113311 73 248 4.0 7.0 0.00 0.00 0.00 62 1005.6
20210730112412 73 225 3.0 10.0 0.00 0.00 0.00 63 1005.6
20210730111511 73 245 4.0 7.0 0.00 0.00 0.00 63 1005.6
20210730110611 73 220 4.0 7.0 0.00 0.00 0.00 63 1005.6
20210730105711 73 201 4.0 10.0 0.00 0.00 0.00 63 1006.6
20210730104811 73 181 7.0 10.0 0.00 0.00 0.00 64 1006.6
20210730103911 73 174 4.0 10.0 0.00 0.00 0.00 64 1006.6
20210730103012 73 166 6.0 15.0 0.00 0.00 0.00 65 1006.6
20210730102112 72 169 5.0 10.0 0.00 0.00 0.00 65 1006.6
20210730101212 72 159 5.0 12.0 0.00 0.00 0.00 65 1006.6
20210730095102 71 180 4.0 8.0 0.00 0.00 0.00 67 1006.6
20210730094207 71 145 4.0 8.0 0.00 0.00 0.00 67 1006.6
20210730093303 71 150 3.0 11.0 0.00 0.00 0.00 67 1006.6
20210730092402 70 163 7.0 10.0 0.00 0.00 0.00 67 1006.6
20210730091503 70 154 4.0 8.0 0.00 0.00 0.00 65 1006.6
20210730090603 70 157 2.0 7.0 0.00 0.00 0.00 64 1006.6
20210730085702 70 182 4.0 8.0 0.00 0.00 0.00 64 1006.6
20210730084803 71 161 3.0 8.0 0.00 0.00 0.00 64 1006.6
20210730083902 70 162 5.0 11.0 0.00 0.00 0.00 63 1006.6
20210730083002 70 180 4.0 6.0 0.00 0.00 0.00 62 1007.6
20210730082102 70 170 3.0 8.0 0.00 0.00 0.00 63 1007.6
20210730081203 70 161 3.0 10.0 0.00 0.00 0.00 63 1006.6
20210730080000 69 162 5.0 6.0 0.00 0.00 0.00 64 1006.6
20210730075101 69 176 3.0 8.0 0.00 0.00 0.00 64 1006.6
20210730074200 69 190 3.0 8.0 0.00 0.00 0.00 65 1007.6
20210730073301 69 165 4.0 5.0 0.00 0.00 0.00 68 1007.6
20210730072401 69 157 2.0 6.0 0.00 0.00 0.00 70 1007.6
20210730071501 68 138 3.0 6.0 0.00 0.00 0.00 70 1007.6
20210730070600 69 146 2.0 6.0 0.00 0.00 0.00 71 1007.6
20210730065700 68 146 3.0 6.0 0.00 0.00 0.00 73 1007.6
20210730064801 67 145 2.0 4.0 0.00 0.00 0.00 74 1007.6
20210730063902 67 143 3.0 4.0 0.00 0.00 0.00 78 1007.6
20210730063000 65 123 2.0 4.0 0.00 0.00 0.00 81 1007.6